Flag for Saudi Arabia Weather past 2 weeks in Jeddah, Saudi Arabia

Now
86 °F

Clear.


Feels Like: 91 °F
Forecast: 81 / 97 °F
Wind: 12 mph from North

Location: Jeddah King Abdul Aziz International Airport

Current Time: Sep 22, 2014 at 10:21:35 PM

Latest Report: Sep 22, 2014 at 10:00 PM


Visibility: 10 mi

Pressure: 29.74 "Hg

Humidity: 59%

Dew point: 70 °F

Location of JeddahLocation

Historic Weather in Jeddah — Graph

°F

Jeddah temperature yesterday

Maximum temperature yesterday: 93 °F (at 11:00 AM)
Minimum temperature yesterday: 81 °F (at 5:00 AM)
Average temperature yesterday: 87 °F

Past Weeks' High & Low Weather Summary

 TemperatureHumidityPressure
High100 °F (Sep 8, 12:00 PM)84% (Sep 21, 5:00 AM)29.77 "Hg (Sep 21, 5:00 AM)
Low81 °F (Sep 21, 5:00 AM)29% (Sep 17, 12:00 PM)29.65 "Hg (Sep 9, 4:00 PM)
Average90 °F53%29.71 "Hg
* Reported Sep 7 9:00 PM — Sep 22 9:00 PM, Jeddah, Weather by CustomWeather, © 2014

Note: Actual official high and low records may vary slightly from our data, if they occured in-between our weather recording intervals... More about our weather records

Advertising

Jeddah weather history for previous 24 hours

 ConditionsComfort  
Time TempWeatherWind HumidityBarometerVisibility
9:00 PM
Sep 22
86 °FClear.14 mph55%29.74 "Hg10 mi
8:00 PM88 °FClear.14 mph46%29.71 "Hg10 mi
7:00 PM90 °FClear.14 mph41%29.71 "Hg10 mi
6:00 PM91 °FSunny.16 mph38%29.68 "Hg10 mi
5:00 PM93 °FSunny.16 mph36%29.68 "Hg10 mi
4:00 PM93 °FSunny.16 mph36%29.68 "Hg10 mi
3:00 PM93 °FSunny.14 mph41%29.71 "Hg10 mi
2:00 PM93 °FSunny.16 mph44%29.71 "Hg10 mi
1:00 PM93 °FSunny.14 mph44%29.74 "Hg10 mi
12:00 PM93 °FSunny.16 mph47%29.74 "Hg10 mi
11:00 AM93 °FSunny.9 mph47%29.77 "Hg10 mi
10:00 AM90 °FSunny.7 mph52%29.77 "Hg10 mi
9:00 AM88 °FSunny.5 mph55%29.77 "Hg10 mi
8:00 AM84 °FSunny.3 mph66%29.74 "Hg10 mi
7:00 AM81 °FSunny.No wind70%29.74 "Hg10 mi
6:00 AM81 °FClear.No wind70%29.71 "Hg10 mi
5:00 AM82 °FClear.7 mph66%29.71 "Hg10 mi
4:00 AM82 °FClear.5 mph66%29.71 "Hg10 mi
3:00 AM82 °FClear.9 mph66%29.71 "Hg10 mi
2:00 AM82 °FClear.7 mph70%29.71 "Hg10 mi
1:00 AM84 °FClear.9 mph66%29.71 "Hg10 mi
12:00 AM84 °FClear.9 mph66%29.74 "Hg10 mi
11:00 PM
Sep 21
86 °FClear.9 mph62%29.74 "Hg10 mi
10:00 PM86 °FClear.9 mph62%29.74 "Hg10 mi
Weather by CustomWeather, © 2014

See weather overviewHow to use our weather pages